Weather Roundup
Issued by NWS Chicago, IL

Home | Current Version | Previous Version | Graphics & Text | Print | Product List | Glossary On
Versions: 1 2 3 4 5 6 7 8 9 10 11 12 13 14 15 16 17 18 19 20 21 22 23 24 25 26 27 28 29 30 31 32 33 34 35 36 37 38 39 40 41 42 43 44 45 46 47 48 49 50
000
NZUS59 KLOT 250708
HRRLOT

CHICAGO AREA WEATHER ROUNDUP
NATIONAL WEATHER SERVICE CHICAGO/ROMEOVILLE IL
200 AM CDT MON MAY 25 2015

NOTE: "FAIR" INDICATES FEW OR NO CLOUDS BELOW 12,000 FEET WITH NO
SIGNIFICANT WEATHER AND/OR OBSTRUCTIONS TO VISIBILITY.

* THESE STATIONS ARE NOT UNDER NWS QUALITY CONTROL. THEY ALSO MAY NOT
  REPORT WEATHER SUCH AS PRECIPITATION OR FOG.

ILZ005-006-012>014-019>023-250800-
NORTHEAST ILLINOIS

CITY           SKY/WX    TMP DP  RH WIND       PRES   REMARKS
OHARE          CLOUDY    72  62  71 S16G24    29.86F
MIDWAY         CLOUDY    75  63  66 S14G22    29.87F
AURORA         CLOUDY    72  62  71 S13       29.85F
LANSING*       MOCLDY    73  59  62 S13       29.90F
JOLIET*        CLOUDY    75  65  69 S16G22    29.86F
WAUKEGAN       CLOUDY    69  62  78 S14       29.85F
DUPAGE AIRPORT CLOUDY    72  63  73 S16G28    29.85F
WHEELING       CLOUDY    71  62  73 S14       29.87F
KANKAKEE*      CLOUDY    74  64  69 S21G31    29.89F
MORRIS*        LGT RAIN  72  65  78 S20G30    29.84F
LEWIS AIRPORT* CLOUDY    72  62  69 S18G24    29.86F
NORTHERLY IS     N/A     74  60  61 S14         N/A
$$

WIZ051-052-058>065-066-070>072-250800-
SOUTHEAST WISCONSIN

CITY           SKY/WX    TMP DP  RH WIND       PRES   REMARKS
MILWAUKEE      CLOUDY    58  56  93 E5        29.86F FOG
KENOSHA*       CLOUDY    63  61  93 E3        29.86F
RACINE*        CLOUDY    61  59  93 E5        29.88F FOG
BURLINGTON     RAIN      59  59  99 CALM      29.86F
WAUKESHA       HVY RAIN  59  59 100 S3        29.88F
WEST BEND      CLOUDY    57  55  94 CALM      29.86F FOG
$$

INZ001>003-010>013-019-020-250800-
NORTHWEST INDIANA

CITY           SKY/WX    TMP DP  RH WIND       PRES   REMARKS
GARY*          MOCLDY    75  62  62 SE9G18    29.90F
MICHIGAN CITY* NOT AVBL
RENSSELAER*    NOT AVBL
VALPARAISO     MOCLDY    73  60  63 S13       29.93F
$$

LMZ740>746-250800-
SOUTHERN LAKE MICHIGAN

STATION/POSITION TIME  SKY/WX   TEMP WIND        PRES    VSBY
                                AIR  DIR/SP/G
                 (UTC)          (F)  (DEG/KT/KT) (MB)    (MI)
HARRISON CRIB    0600            71  180/ 24/ 30   N/A
BURNHAM HARBOR   0700            74  190/ 11/ 18   N/A
CALUMET HARBOR   0600            75  160/ 13/ 19   N/A
BURNS HARBOR     0600            75  190/ 15/ 24 1013.5F
MICHIGAN CITY    0600            74  150/ 16/ 24   N/A
$$

ABBREVIATIONS USED IN REMARKS
   TC - TEMPERATURE IN CELSIUS
  WCI - WIND CHILL INDEX
   HX - HEAT INDEX
  VSB - VISIBILITY
$$


USA.gov is the U.S. government's official web portal to all federal, state and local government web resources and services.